星链-35454(STARLINK-35454)

导读 | 豆包AI

STARLINK-35454是美国于2025年10月29日发射的星链系列卫星,隶属于SpaceX星链卫星互联网项目。星链系统旨在为全球提供低延迟、高速率的宽带互联网服务,该卫星入轨后将扩充星链星座规模,提升全球网络覆盖能力,进一步推动全球互联网络基础设施建设。

基本信息
目录编号:
66236
目录名称:
STARLINK-35454
国际标识:
2025-245C
轨道中心:
EARTH
卫星名称:
星链-35454
卫星全名:
星链-35454(STARLINK-35454)
卫星状态:
在轨 (已飞行208 天)
发射日期:
2025-10-29 UTC
国别 :
美国 (US)
星等 :
--
轨道信息
数据来源 国际轨道数据
星历时间: 2026-05-25T02:42:24+0800
16小时前
查看轨道信息
半长轴: 6853.423km
偏心率: 0.0000747
轨道倾角: 53.157°
近地点辐角 53.107°
升交点赤经 290.652°
平近点角 307.000°
近地点: 474.774km
远地点: 475.798km
周期: 94.107分钟
每日圈数: 15.301764
详细信息
固有亮度:
5
最大亮度:
2.5
卫星平台:
Starlink V1.0
覆盖范围:
全球
运营商:
太空探索技术公司
运营商所在国:
美国
制造商(研发单位):
太空探索技术公司
制造商所在国:
美国
使用方式:
暂无
卫星简介
Starlink 计划是 SpaceX 推出的全球卫星互联网项目,通过发射低轨道卫星,为全球尤其是偏远地区提供高速、低延迟的互联网服务。自 2019 年起,Starlink 已部署数千颗卫星,旨在缩小全球数字鸿沟,推动互联网普及。该项目还为军事、航空等行业提供通信支持,带来广泛经济效益。
2D轨道图
3D轨道图
轨道高度分析图
轨道倾角分析图
轨道综合分析图
查看轨道综合分析图